Stations météo

Publicité
Colmar, France (7197): Température de l'air & dewpoint: 20.09.2017 11:00:00 - 26.09.2017 11:00:00 (CEST)Colmar, France (7197): Température de l'air 5cm: 20.09.2017 11:00:00 - 26.09.2017 11:00:00 (CEST)Colmar, France (7197): Température de l'air -20cm & Température de l'air -100cm: 20.09.2017 11:00:00 - 26.09.2017 11:00:00 (CEST)Colmar, France (7197): Vitesse du vent & gusts: 20.09.2017 11:00:00 - 26.09.2017 11:00:00 (CEST)Colmar, France (7197): Direction du vent: 20.09.2017 11:00:00 - 26.09.2017 11:00:00 (CEST)Colmar, France (7197): reduced air pressure: 20.09.2017 11:00:00 - 26.09.2017 11:00:00 (CEST)Colmar, France (7197): visibility: 20.09.2017 11:00:00 - 26.09.2017 11:00:00 (CEST)Colmar, France (7197): Ensoleillement: 20.09.2017 11:00:00 - 26.09.2017 11:00:00 (CEST)Colmar, France (7197): Quantités de précipitations: 20.09.2017 11:00:00 - 26.09.2017 11:00:00 (CEST)
Date & Time tt [°C] td [°C] tt 5cm [°C] tt -20cm [°C] tt -100cm [°C] ff [km/h] ff [knt] fx [km/h] fx [knt] dd ppp [hPa] vv [km] sd [min] rr [mm]
26.09.2017 11:00:00 15,4 10,4 17,1 15,4 18,1 6 3 11 6 SSW 1021,8 20 39 0,0
26.09.2017 10:00:00 12,8 10,5 10,6 15,4 18,1 2 1 5 3 E 1021,8 20 34 0,0
26.09.2017 09:00:00 8,9 8,8 5,9 15,6 18,1 2 1 3 2 SW 1022,1 14 56 0,0
26.09.2017 08:00:00 5,9 5,6 3,2 15,9 18,1 0 0 6 3 N 1022,0 0,4 0 0,0
26.09.2017 07:00:00 5,4 4,8 3,3 16,2 18,1 2 1 4 2 ENE 1021,6 3,8 0 0,0
26.09.2017 06:00:00 6,1 5,7 3,4 16,6 18,1 0 0 3 2 N 1021,2 0,5 0 0,0
26.09.2017 05:00:00 7,0 6,3 4,3 16,9 18,1 0 0 6 3 N 1020,9 1,1 0 0,0
26.09.2017 04:00:00 8,3 8,0 5,2 17,3 18,1 4 2 7 4 SSE 1020,7 9 0 0,0
26.09.2017 03:00:00 8,1 7,5 5,4 17,6 18,1 3 2 6 3 SSW 1020,7 4,3 0 0,0
26.09.2017 02:00:00 8,8 7,9 6,4 18,0 18,1 2 1 7 4 SW 1020,7 8 0 0,0
26.09.2017 01:00:00 9,5 8,1 7,2 18,3 18,1 0 0 5 3 N 1020,6 16 0 0,0
26.09.2017 00:00:00 11,5 9,4 9,5 18,6 18,1 3 2 6 3 SSE 1020,4 20 0 0,0
25.09.2017 23:00:00 12,2 9,8 10,5 18,8 18,1 4 2 8 4 SW 1020,3 20 0 0,0
25.09.2017 22:00:00 13,3 10,1 11,3 19,0 18,1 3 1 6 3 WSW 1019,8 20 0 0,0
25.09.2017 21:00:00 14,1 10,1 11,3 19,2 18,1 0 0 5 3 N 1019,7 20 0 0,0
25.09.2017 20:00:00 15,3 9,6 12,1 19,3 18,1 3 2 8 4 NNE 1019,1 20 0 0,0
25.09.2017 19:00:00 18,3 9,4 17,7 19,3 18,1 3 2 9 5 N 1018,4 20 0 0,0
25.09.2017 18:00:00 20,2 9,4 20,8 19,0 18,1 4 2 10 6 N 1017,8 20 16 0,0
25.09.2017 17:00:00 20,8 9,4 23,0 18,5 18,1 6 3 14 8 N 1017,4 20 50 0,0
25.09.2017 16:00:00 21,3 9,8 26,2 17,8 18,1 7 4 21 11 E 1017,5 20 60 0,0
25.09.2017 15:00:00 20,4 9,6 24,7 17,1 18,1 5 3 17 9 E 1017,9 20 60 0,0
25.09.2017 14:00:00 18,1 11,4 21,3 16,4 18,1 5 3 13 7 NNE 1018,6 20 60 0,0
25.09.2017 13:00:00 14,8 11,2 15,9 16,1 18,1 6 3 14 8 N 1019,5 12 20 0,0
25.09.2017 12:00:00 12,7 10,8 13,2 15,9 18,1 5 3 12 6 NNE 1019,9 8 0 0,0
25.09.2017 11:00:00 11,7 10,6 12,2 15,9 18,1 6 3 11 6 NNW 1020,4 6 0 0,0
25.09.2017 10:00:00 11,2 10,4 11,9 16,0 18,1 6 3 13 7 N 1020,3 5 0 0,0
25.09.2017 09:00:00 10,8 10,5 10,7 16,0 18,1 8 4 19 10 NNE 1020,4 2,8 0 0,0
25.09.2017 08:00:00 10,6 10,4 9,1 16,2 18,1 9 5 18 10 N 1020,6 2,6 0 0,0
25.09.2017 07:00:00 8,8 8,7 4,9 16,5 18,1 2 1 4 2 WNW 1020,5 3,0 0 0,0
25.09.2017 06:00:00 6,2 5,5 4,4 16,8 18,1 3 2 5 3 NW 1020,7 0,1 0 0,0
25.09.2017 05:00:00 7,6 6,8 5,3 17,1 18,1 0 0 10 6 N 1020,8 1,9 0 0,0
25.09.2017 04:00:00 10,5 9,9 6,0 17,5 18,1 6 4 11 6 NE 1020,6 7 0 0,0
25.09.2017 03:00:00 9,6 8,5 6,1 17,8 18,0 3 1 6 4 ENE 1020,8 6 0 0,0
25.09.2017 02:00:00 11,4 9,8 8,2 18,2 18,1 5 3 10 5 NE 1020,9 13 0 0,0
25.09.2017 01:00:00 10,9 9,2 8,2 18,5 18,1 5 3 12 6 E 1021,2 17 0 0,0
25.09.2017 00:00:00 12,3 9,7 10,9 18,9 18,1 8 4 14 8 N 1021,1 20 0 0,0
24.09.2017 23:00:00 12,4 9,2 10,5 19,2 18,1 6 3 9 5 N 1021,4 20 0 0,0
24.09.2017 22:00:00 13,6 9,2 9,0 19,6 18,1 6 3 9 5 NNE 1021,2 20 0 0,0
24.09.2017 21:00:00 12,6 8,9 10,7 19,8 18,0 3 2 8 5 NW 1021,3 20 0 0,0
24.09.2017 20:00:00 15,9 8,9 14,3 20,0 18,0 5 3 13 7 NE 1020,6 20 0 0,0
24.09.2017 19:00:00 18,6 8,5 18,2 20,1 18,0 7 4 16 9 NE 1020,1 20 46 0,0
24.09.2017 18:00:00 20,2 9,1 20,4 19,9 18,0 8 4 18 10 NNE 1019,8 20 21 0,0
24.09.2017 17:00:00 21,4 9,9 22,9 19,5 18,0 11 6 22 12 NNE 1019,6 20 47 0,0
24.09.2017 16:00:00 21,8 8,7 25,8 18,9 18,0 8 5 21 12 NE 1019,7 20 50 0,0
24.09.2017 15:00:00 21,7 8,9 26,5 18,1 18,0 10 5 19 10 N 1019,9 20 60 0,0
24.09.2017 14:00:00 20,9 10,1 24,3 17,4 18,0 11 6 21 11 ENE 1020,3 20 60 0,0
24.09.2017 13:00:00 19,6 11,1 22,8 16,7 18,0 10 5 18 10 NNW 1020,8 20 60 0,0
24.09.2017 12:00:00 17,8 11,6 19,9 16,3 18,0 9 5 16 9 ENE 1021,5 19 60 0,0
24.09.2017 11:00:00 15,3 11,5 15,3 16,1 18,0 10 5 16 8 NNE 1021,9 11 46 0,0
24.09.2017 10:00:00 13,4 11,1 12,7 16,1 18,0 9 5 16 9 NE 1022,2 7 50 0,0
24.09.2017 09:00:00 11,0 10,4 6,8 16,3 18,0 0 0 8 5 N 1022,2 6 43 0,0
24.09.2017 08:00:00 8,2 7,6 5,8 16,6 18,0 0 0 4 2 N 1022,1 1,8 0 0,0
24.09.2017 07:00:00 9,1 7,9 7,3 16,9 18,0 2 1 11 6 W 1021,7 1,9 0 0,0
24.09.2017 06:00:00 10,3 9,2 6,7 17,3 18,0 6 3 9 5 ENE 1021,2 6 0 0,0
24.09.2017 05:00:00 9,0 8,1 6,4 17,6 18,0 2 1 6 4 NE 1021,1 11 0 0,0
24.09.2017 04:00:00 11,1 9,4 7,9 17,9 18,0 3 1 6 4 NE 1020,9 20 0 0,0
24.09.2017 03:00:00 13,3 9,7 11,5 18,1 18,0 3 2 10 6 NE 1020,7 20 0 0,0
24.09.2017 02:00:00 14,3 9,9 13,6 18,3 18,0 6 4 12 6 N 1020,7 20 0 0,0
24.09.2017 01:00:00 14,3 9,9 13,7 18,6 18,0 6 3 14 8 N 1020,8 20 0 0,0
24.09.2017 00:00:00 15,0 10,0 14,5 18,9 18,0 8 4 15 8 N 1020,7 20 0 0,0
23.09.2017 23:00:00 15,7 10,0 - - - 8 4 13 7 N 1020,7 20 - -
23.09.2017 22:00:00 15,8 10,3 15,1 19,3 18,0 7 4 12 7 N 1020,7 20 0 0,0
23.09.2017 21:00:00 16,5 10,8 16,1 19,6 18,0 6 3 17 9 N 1020,8 20 0 0,0
23.09.2017 20:00:00 17,6 10,2 17,2 19,7 18,0 8 4 14 8 N 1020,3 20 0 0,0
23.09.2017 19:00:00 18,8 9,8 18,4 19,7 18,0 5 3 12 6 NNE 1020,1 20 0 0,0
23.09.2017 18:00:00 20,0 10,4 20,3 19,6 18,0 5 3 18 10 NNE 1019,9 20 11 0,0
23.09.2017 17:00:00 21,7 10,2 21,8 19,2 18,0 12 6 24 13 N 1019,6 20 23 0,0
23.09.2017 16:00:00 22,4 10,2 23,1 18,7 18,0 10 6 21 11 NE 1019,9 20 32 0,0
23.09.2017 15:00:00 21,7 10,2 25,1 17,9 18,0 6 4 21 12 NNE 1020,3 20 52 0,0
23.09.2017 14:00:00 21,8 10,9 25,9 17,0 18,0 9 5 19 10 N 1020,8 20 60 0,0
23.09.2017 13:00:00 20,2 11,1 22,6 16,3 18,0 8 5 16 9 NNE 1021,5 20 60 0,0
23.09.2017 12:00:00 18,6 11,2 20,1 15,7 18,0 9 5 16 9 N 1022,3 20 60 0,0
23.09.2017 11:00:00 16,3 11,0 18,1 15,3 18,0 7 4 13 7 N 1023,0 20 60 0,0
23.09.2017 10:00:00 15,5 10,7 14,4 15,1 18,0 3 2 8 4 ENE 1023,1 20 60 0,0
23.09.2017 09:00:00 11,6 9,8 10,1 15,2 18,0 2 1 4 2 ENE 1023,5 20 43 0,0
23.09.2017 08:00:00 9,2 8,9 7,7 15,4 18,0 0 0 4 2 N 1023,5 15 19 0,0
23.09.2017 07:00:00 7,9 7,5 6,2 15,7 18,0 0 0 2 1 N 1023,6 20 0 0,0
23.09.2017 06:00:00 7,2 6,6 5,5 16,0 18,0 0 0 2 1 N 1023,5 20 0 0,0
23.09.2017 05:00:00 7,6 6,8 5,7 16,3 18,0 0 0 5 3 N 1023,4 10 0 0,0
23.09.2017 04:00:00 8,7 7,8 6,5 16,6 18,0 0 0 4 2 N 1023,4 13 0 0,0
23.09.2017 03:00:00 9,7 8,8 6,3 17,0 18,0 6 3 9 5 S 1023,4 20 0 0,0
23.09.2017 02:00:00 8,5 7,7 6,1 17,4 18,0 2 1 5 3 SSW 1023,5 13 0 0,0
23.09.2017 01:00:00 9,7 8,6 7,4 17,7 18,0 4 2 8 4 ESE 1023,2 20 0 0,0
23.09.2017 00:00:00 10,3 8,2 7,8 18,1 18,0 3 2 6 4 E 1023,2 20 0 0,0
22.09.2017 23:00:00 11,7 9,4 8,5 18,4 18,0 4 2 9 5 ENE 1022,7 20 0 0,0
22.09.2017 22:00:00 14,2 10,2 12,9 18,7 18,0 7 4 13 7 NNE 1022,1 20 0 0,0
22.09.2017 21:00:00 14,4 9,8 12,9 19,0 18,1 8 4 12 6 N 1021,8 20 0 0,0
22.09.2017 20:00:00 17,5 8,9 13,7 19,1 18,1 3 1 7 4 E 1020,8 20 5 0,0
22.09.2017 19:00:00 21,3 9,2 21,3 19,0 18,1 4 2 16 9 SSW 1019,9 20 53 0,0
22.09.2017 18:00:00 23,0 9,0 22,8 18,6 18,1 5 3 14 8 S 1019,6 20 39 0,0
22.09.2017 17:00:00 23,1 9,1 24,4 18,0 18,1 9 5 18 10 SW 1019,5 20 46 0,0
22.09.2017 16:00:00 23,5 9,1 28,1 17,1 18,1 4 2 15 8 E 1019,5 20 58 0,0
22.09.2017 15:00:00 22,4 7,4 26,9 16,2 18,1 5 3 15 8 S 1019,9 20 60 0,0
22.09.2017 14:00:00 21,7 6,4 26,0 15,2 18,1 6 3 16 9 SSW 1020,1 16 60 0,0
22.09.2017 13:00:00 20,8 8,4 22,5 14,4 18,1 5 3 21 11 SW 1020,4 20 60 0,0
22.09.2017 12:00:00 18,0 8,0 19,3 13,8 18,1 8 4 16 8 SSW 1021,0 20 58 0,0
22.09.2017 11:00:00 15,2 8,4 15,0 13,5 18,1 11 6 21 12 SSW 1021,3 20 46 0,0
22.09.2017 10:00:00 - - - - - - - - - - - - - -
22.09.2017 09:00:00 - - - - - - - - - - - - - -
22.09.2017 08:00:00 - - - - - - - - - - - - - -
22.09.2017 07:00:00 - - - - - - - - - - - - - -
22.09.2017 06:00:00 - - - - - - - - - - - - - -
22.09.2017 05:00:00 - - - - - - - - - - - - - -
22.09.2017 04:00:00 - - - - - - - - - - - - - -
22.09.2017 03:00:00 - - - - - - - - - - - - - -
22.09.2017 02:00:00 - - - - - - - - - - - - - -
22.09.2017 01:00:00 - - - - - - - - - - - - - -
22.09.2017 00:00:00 - - - - - - - - - - - - - -
21.09.2017 23:00:00 - - - - - - - - - - - - - -
21.09.2017 22:00:00 - - - - - - - - - - - - - -
21.09.2017 21:00:00 - - - - - - - - - - - - - -
21.09.2017 20:00:00 14,6 7,9 11,1 18,1 18,2 3 1 7 4 NE 1019,3 20 7 0,0
21.09.2017 19:00:00 18,6 8,0 19,3 18,0 18,2 4 2 13 7 NNE 1018,6 20 60 0,0
21.09.2017 18:00:00 19,6 7,7 22,3 17,7 18,2 7 4 14 8 NNE 1018,4 20 60 0,0
21.09.2017 17:00:00 20,6 7,6 24,8 17,1 18,2 6 3 12 7 NNE 1018,3 20 60 0,0
21.09.2017 16:00:00 20,0 7,0 24,5 16,3 18,2 8 4 17 9 NNW 1018,9 20 60 0,0
21.09.2017 15:00:00 19,6 7,7 23,6 15,4 18,2 8 4 18 10 N 1019,2 20 60 0,0
21.09.2017 14:00:00 18,6 7,7 23,0 14,5 18,3 8 4 17 9 NNW 1019,8 20 60 0,0
21.09.2017 13:00:00 17,1 7,2 21,0 13,6 18,3 7 4 16 8 NW 1020,6 20 60 0,0
21.09.2017 12:00:00 15,2 8,4 18,5 12,8 18,2 5 3 10 5 W 1021,3 20 60 0,0
21.09.2017 11:00:00 13,5 8,8 14,1 12,4 18,3 2 1 8 4 WNW 1022,0 20 60 0,0
21.09.2017 10:00:00 11,4 8,1 7,6 12,3 18,3 3 1 7 4 SSE 1022,5 19 60 0,0
21.09.2017 09:00:00 7,0 7,0 3,5 12,4 18,3 0 0 3 2 N 1022,7 4,5 48 0,0
21.09.2017 08:00:00 3,2 3,1 1,1 12,7 18,3 0 0 8 4 N 1023,0 0,1 1 0,0
21.09.2017 07:00:00 2,3 1,9 1,0 13,0 18,3 2 1 3 2 SE 1023,1 4,6 0 0,0
21.09.2017 06:00:00 2,8 2,4 1,0 13,4 18,3 0 0 0 0 N 1023,0 1,0 0 0,0
21.09.2017 05:00:00 3,2 2,8 0,9 13,7 18,3 0 0 4 2 N 1023,2 9 0 0,0
21.09.2017 04:00:00 3,7 3,3 1,6 14,1 18,3 2 1 4 2 S 1023,2 4,9 0 0,0
21.09.2017 03:00:00 4,0 3,6 1,4 14,5 18,3 0 0 5 3 N 1023,3 7 0 0,0
21.09.2017 02:00:00 4,2 3,8 2,1 14,9 18,4 3 2 6 3 S 1023,7 6 0 0,0
21.09.2017 01:00:00 5,0 4,4 2,5 15,2 18,3 0 0 3 2 N 1023,6 1,4 0 0,0
21.09.2017 00:00:00 6,0 5,3 3,4 15,6 18,4 0 0 3 2 N 1023,4 10 0 0,0
20.09.2017 23:00:00 6,8 5,6 4,6 16,0 18,4 0 0 4 2 N 1023,3 15 0 0,0
20.09.2017 22:00:00 8,0 6,9 5,4 16,4 18,4 0 0 7 4 N 1023,3 20 0 0,0
20.09.2017 21:00:00 9,4 6,5 6,5 16,6 18,4 4 2 8 4 NW 1023,1 20 0 0,0
20.09.2017 20:00:00 12,0 6,9 10,3 16,8 18,4 4 2 9 5 NE 1022,6 20 7 0,0
20.09.2017 19:00:00 14,8 8,1 15,2 16,8 18,4 6 3 16 9 NE 1022,0 20 33 0,0
20.09.2017 18:00:00 16,6 7,5 19,1 16,5 18,4 8 5 17 9 NNE 1021,6 20 60 0,0
20.09.2017 17:00:00 17,4 8,3 18,1 16,3 18,4 10 5 21 11 N 1021,7 20 31 0,0
20.09.2017 16:00:00 16,8 6,9 17,8 16,0 18,4 2 1 14 8 NNW 1022,0 20 1 0,0
20.09.2017 15:00:00 17,3 6,8 18,1 15,5 18,4 5 3 14 8 ENE 1022,2 20 10 0,0
20.09.2017 14:00:00 17,0 7,3 19,0 15,0 18,4 3 1 14 8 NE 1022,5 20 5 0,0
20.09.2017 13:00:00 17,0 7,3 17,0 14,4 18,4 4 2 9 5 ESE 1022,8 20 28 0,0
20.09.2017 12:00:00 15,8 8,5 18,6 13,7 18,5 4 2 13 7 ESE 1023,2 20 56 0,0
20.09.2017 11:00:00 14,1 10,3 15,2 13,3 18,5 6 3 12 7 SSW 1023,5 20 60 0,0

tt = Température de l'air
td = dewpoint
tt 5cm = Température de l'air 5cm
tt -20cm = Température de l'air -20cm
tt -100cm = Température de l'air -100cm
ff = Vitesse du vent
fx = gusts
dd = Direction du vent
ppp = reduced air pressure
vv = visibility
sd = Ensoleillement
rr = Quantités de précipitations

stations d'obs. à proximité